Location: St. Louis
(38.6270°N, 90.1994°W)
Time: 10:50:35
(UTC-06:00)

S-56A Canister/Altair - Pass Details

Date: 06 December 2021
Orbit: 634 x 2499 km, 38.9° (Epoch: 26 January)

Event Time Altitude Azimuth Distance (km) Brightness Sun altitude
Rises 21:13:59 0° 218° (SW) 6,015 12.3 -52.8°
Reaches altitude 10° 21:18:31 10° 212° (SSW) 4,842 11.6 -53.6°
Enters shadow 21:21:15 17° 206° (SSW) 4,145 11.2 -54.1°
Maximum altitude 21:30:16 40° 149° (SSE) 2,484 - -55.8°
Drops below altitude 10° 21:38:42 10° 84° (E) 3,499 - -57.4°
Sets 21:41:25 0° 77° (ENE) 4,238 - -57.9°
